User: anonymous   Login
Location: Wien
(48.2082°N, 16.3738°E)
Time: 05:43:38
(UTC+02:00)
Language:

STARS - Orbit

View from above orbital plane
View from above orbital plane
View from above satellite
View from above satellite

Ground track
Ground track

The orbit data is extracted from the following two-line orbital elements,

1 33498U 09002G   24106.44601665  .00006220  00000-0  74064-3 0  9997
2 33498  98.1212  19.4626 0008349 249.0845 110.9475 14.84688806820365
Epoch (UTC): 15 April 2024 10:42:15
Eccentricity: 0.0008349
inclination: 98.1212°
perigee height: 609 km
apogee height: 620 km
right ascension of ascending node: 19.4626°
argument of perigee: 249.0845°
revolutions per day: 14.84688806
mean anomaly at epoch: 110.9475°
orbit number at epoch: 82036

The dashed part of the orbit path shows where the satellite is in the earth's shadow,  

DLR